Location: Eschertshofen
(49.3064°N, 11.5756°E)
Time: 22:42:09
(UTC+00:00)

Cosmos 2278 Rocket - Pass Details

Date: 18 September 2020
Orbit: 841 x 845 km, 71.0° (Epoch: 20 October)

Event Time Altitude Azimuth Distance (km) Brightness Sun altitude
Exits shadow 21:22:35 25° 26° (NNE) 1,640 3.9 -34.5°
Drops below altitude 10° 21:24:51 10° 28° (NNE) 2,471 4.9 -34.7°
Sets 21:27:18 0° 29° (NNE) 3,410 5.7 -34.9°
